Barkley Observed Data For Previous 48 Hours

Caption
Day and Hour Reservoir Elevation (behind dam)* Tailwater Elevation (below dam)* Average Hourly Discharge*
1/16/2019 1 AM CST 355.10 326.00 69,400
1/16/2019 2 AM CST 355.10 325.90 69,800
1/16/2019 3 AM CST 355.05 325.85 69,800
1/16/2019 4 AM CST 355.05 325.75 68,900
1/16/2019 5 AM CST 355.00 325.70 69,800
1/16/2019 6 AM CST 355.00 325.60 69,300
1/16/2019 7 AM CST 354.95 325.55 69,400
1/16/2019 8 AM CST 354.95 325.45 69,600
1/16/2019 9 AM CST 354.90 325.40 69,200
1/16/2019 10 AM CST 354.90 325.40 69,600
1/16/2019 11 AM CST 354.90 325.30 69,600
1/16/2019 12 PM CST 354.85 325.15 69,600
1/16/2019 1 PM CST 354.80 325.20 69,600
1/16/2019 2 PM CST 354.80 325.20 70,000
1/16/2019 3 PM CST 354.80 325.00 69,500
1/16/2019 4 PM CST 354.80 324.80 69,500
1/16/2019 5 PM CST 354.75 324.85 69,500
1/16/2019 6 PM CST 354.75 324.85 69,500
1/16/2019 7 PM CST 354.70 324.80 69,500
1/16/2019 8 PM CST 354.60 324.70 69,500
1/16/2019 9 PM CST 354.60 324.70 69,900
1/16/2019 10 PM CST 354.60 324.50 69,800
1/16/2019 11 PM CST 354.60 324.50 69,000
1/17/2019 12 AM CST 354.60 324.40 68,900
1/17/2019 1 AM CST 354.55 324.25 69,300
1/17/2019 2 AM CST 354.55 324.25 69,300
1/17/2019 3 AM CST 354.55 324.15 69,200
1/17/2019 4 AM CST 354.55 324.15 69,200
1/17/2019 5 AM CST 354.50 324.00 69,200
1/17/2019 6 AM CST 354.50 323.90 68,800
1/17/2019 7 AM CST 354.50 323.90 69,200
1/17/2019 8 AM CST 354.50 323.90 69,200
1/17/2019 9 AM CST 354.50 323.90 69,200
1/17/2019 10 AM CST 354.40 323.80 69,200
1/17/2019 11 AM CST 354.40 323.80 69,200
1/17/2019 12 PM CST 354.40 323.60 68,600
1/17/2019 1 PM CST 354.35 323.55 69,000
1/17/2019 2 PM CST 354.35 323.55 69,000
1/17/2019 3 PM CST 354.35 323.55 69,000
1/17/2019 4 PM CST 354.30 323.40 68,900
1/17/2019 5 PM CST 354.25 323.35 68,900
1/17/2019 6 PM CST 354.25 323.35 68,900

Elevations are in feet above sea level. Discharges are in cubic feet per second and are reported at the end of the hour.